| time (UTC) | temp F | wind direction | speed knots | gust knots | rain 1hr in | rain 24hr in | rain mn in | humidity % | barometer mb |
| 20260504081502 | 53 | 304 | 0.9 | 3.5 | 0.02 | 0.02 | 0.02 | 68 | 1023.0 |
| 20260504050128 | 55 | 5 | 1.7 | 6.1 | 0.00 | 0.01 | 0.00 | 65 | 1021.5 |
| 20260504044558 | 55 | 360 | 1.7 | 8.7 | 0.00 | 0.01 | 0.00 | 63 | 1021.4 |
| 20260504043100 | 55 | 29 | 1.7 | 7.8 | 0.00 | 0.01 | 0.00 | 63 | 1021.2 |
| 20260504041554 | 55 | 41 | 4.3 | 7.8 | 0.00 | 0.01 | 0.00 | 63 | 1021.3 |
| 20260504034553 | 54 | 31 | 2.6 | 5.2 | 0.00 | 0.06 | 0.00 | 63 | 1021.6 |
| 20260504033049 | 55 | 34 | 2.6 | 5.2 | 0.00 | 0.06 | 0.00 | 62 | 1021.9 |
| 20260504031605 | 54 | 30 | 2.6 | 5.2 | 0.00 | 0.06 | 0.00 | 62 | 1022.1 |
| 20260504030047 | 54 | 21 | 1.7 | 7.8 | 0.00 | 0.15 | 0.00 | 62 | 1022.2 |
| 20260504024547 | 55 | 36 | 2.6 | 7.0 | 0.00 | 0.15 | 0.00 | 62 | 1022.2 |
| 20260504023046 | 55 | 24 | 1.7 | 7.8 | 0.00 | 0.15 | 0.00 | 61 | 1022.4 |
| 20260504021545 | 55 | 355 | 2.6 | 8.7 | 0.00 | 0.15 | 0.00 | 60 | 1022.8 |
| 20260504020043 | 54 | 355 | 2.6 | 8.7 | 0.00 | 0.20 | 0.00 | 62 | 1022.8 |
| 20260504014544 | 54 | 197 | 2.6 | 10.4 | 0.00 | 0.20 | 0.00 | 61 | 1023.2 |
| 20260504013042 | 55 | 16 | 1.7 | 11.3 | 0.00 | 0.20 | 0.00 | 63 | 1023.2 |
| 20260504011544 | 53 | 340 | 2.6 | 7.8 | 0.00 | 0.20 | 0.00 | 62 | 1023.4 |
| 20260504010043 | 54 | 318 | 1.7 | 8.7 | 0.00 | 0.47 | 0.00 | 62 | 1023.4 |
| 20260504004536 | 53 | 311 | 2.6 | 8.7 | 0.00 | 0.47 | 0.00 | 64 | 1023.3 |
| 20260504003041 | 52 | 306 | 1.7 | 7.0 | 0.00 | 0.47 | 0.00 | 66 | 1023.3 |
| 20260504001529 | 51 | 324 | 0.9 | 4.3 | 0.00 | 0.47 | 0.00 | 67 | 1023.4 |
| 20260504000025 | 51 | 5 | 1.7 | 5.2 | 0.00 | 0.88 | 0.00 | 68 | 1023.6 |
| 20260503234526 | 50 | 341 | 1.7 | 10.4 | 0.00 | 0.88 | 0.00 | 69 | 1023.6 |
| 20260503233021 | 50 | 350 | 0.9 | 4.3 | 0.00 | 0.88 | 0.00 | 69 | 1023.7 |
| 20260503231521 | 50 | 22 | 2.6 | 7.0 | 0.00 | 0.88 | 0.00 | 70 | 1023.6 |
| 20260503230024 | 49 | 24 | 1.7 | 7.8 | 0.00 | 0.98 | 0.00 | 70 | 1023.6 |
| 20260503224518 | 49 | 27 | 1.7 | 5.2 | 0.00 | 0.98 | 0.00 | 70 | 1023.6 |
| 20260503223023 | 49 | 21 | 1.7 | 7.0 | 0.00 | 0.98 | 0.00 | 70 | 1023.5 |
| 20260503221516 | 49 | 17 | 0.9 | 4.3 | 0.00 | 0.98 | 0.00 | 70 | 1023.6 |
| 20260503220028 | 49 | 23 | 1.7 | 5.2 | 0.00 | 1.01 | 0.00 | 69 | 1023.2 |
| 20260503214510 | 49 | 5 | 1.7 | 5.2 | 0.00 | 1.01 | 0.00 | 70 | 1023.0 |
| 20260503213008 | 48 | 40 | 1.7 | 3.5 | 0.00 | 1.01 | 0.00 | 70 | 1023.2 |
| 20260503211506 | 48 | 34 | 1.7 | 5.2 | 0.00 | 1.01 | 0.00 | 71 | 1023.3 |
| 20260503210012 | 48 | 33 | 1.7 | 3.5 | 0.00 | 1.05 | 0.00 | 70 | 1023.2 |
| 20260503204504 | 48 | 30 | 1.7 | 3.5 | 0.00 | 1.05 | 0.00 | 70 | 1023.0 |
| 20260503203007 | 48 | 32 | 0.9 | 4.3 | 0.00 | 1.05 | 0.00 | 70 | 1022.7 |
| 20260503201503 | 49 | 13 | 0.9 | 4.3 | 0.00 | 1.05 | 0.00 | 71 | 1022.7 |
| 20260503200002 | 49 | 36 | 1.7 | 4.3 | 0.00 | 1.11 | 0.00 | 72 | 1022.9 |
| 20260503194501 | 49 | 32 | 1.7 | 4.3 | 0.00 | 1.11 | 0.00 | 72 | 1022.5 |
| 20260503193101 | 49 | 325 | 1.7 | 4.3 | 0.00 | 1.11 | 0.00 | 73 | 1022.3 |
| 20260503191606 | 48 | 5 | 1.7 | 3.5 | 0.00 | 1.11 | 0.00 | 75 | 1022.5 |
| 20260503190058 | 48 | 5 | 0.9 | 3.5 | 0.00 | 1.12 | 0.00 | 75 | 1022.7 |
| 20260503184621 | 48 | 5 | 1.7 | 3.5 | 0.00 | 1.12 | 0.00 | 75 | 1022.7 |
| 20260503183104 | 48 | 360 | 1.7 | 3.5 | 0.00 | 1.12 | 0.00 | 75 | 1023.0 |
| 20260503181554 | 48 | 15 | 0.0 | 0.0 | 0.00 | 1.12 | 0.00 | 76 | 1023.0 |
| 20260503180052 | 48 | 13 | 0.0 | 0.0 | 0.00 | 1.18 | 0.00 | 75 | 1023.1 |
| 20260503174609 | 48 | 11 | 0.0 | 0.0 | 0.00 | 1.18 | 0.00 | 76 | 1023.1 |
| 20260503173107 | 48 | 11 | 0.0 | 0.0 | 0.00 | 1.18 | 0.00 | 75 | 1023.2 |
| 20260503171550 | 48 | 11 | 0.0 | 0.0 | 0.00 | 1.18 | 0.00 | 76 | 1023.3 |